Home   Weather   Chaguanas   Past weeks

Flag for Trinidad and Tobago Past Weather in Chaguanas, Trinidad and Tobago — Yesterday and Last 2 Weeks

95 °F

Passing clouds.

Feels Like: 105 °F
Forecast: 78 / 91 °F
Wind: 13 mph from East

Location: Piarco International Airport - Trinidad

Current Time: Oct 22, 2016 at 2:01:42 PM

Latest Report: Oct 22, 2016 at 1:00 PM

Visibility: N/A

Pressure: 29.83 "Hg

Humidity: 50%

Dew Point: 73 °F

Location of ChaguanasLocation

Past Weather in Chaguanas — Graph


Chaguanas Temperature Yesterday

Maximum temperature yesterday: 95 °F (at 12:00 PM)
Minimum temperature yesterday: 77 °F (at 4:00 AM)
Average temperature yesterday: 85 °F

High & Low Weather Summary for the Past Weeks

High97 °F (Oct 17, 2:00 PM)100% (Oct 8, 4:00 AM)29.95 "Hg (Oct 8, 4:00 AM)
Low77 °F (Oct 8, 4:00 AM)44% (Oct 21, 2:00 PM)29.71 "Hg (Oct 7, 3:00 PM)
Average84 °F77%29.84 "Hg
* Reported Oct 7 1:00 PM — Oct 22 1:00 PM, Chaguanas, Weather by CustomWeather, © 2016

Note: Actual official high and low records may vary slightly from our data, if they occured in-between our weather recording intervals... More about our weather records


Chaguanas Weather History for the Previous 24 Hours

Scroll right to see more
Time TempWeatherWind HumidityBarometerVisibility
1:00 PM
Sat, Oct 22
95 °FPassing clouds.13 mph50%29.83 "HgN/A
12:00 PM93 °FScattered showers. Scattered clouds.14 mph56%29.86 "HgN/A
11:00 AM95 °FPassing clouds.12 mph53%29.86 "HgN/A
10:00 AM93 °FPassing clouds.12 mph56%29.89 "HgN/A
9:00 AM90 °FPassing clouds.10 mph63%29.89 "HgN/A
8:00 AM88 °FScattered clouds.No wind75%29.86 "HgN/A
6:00 AM79 °FScattered showers. Scattered clouds.No wind84%29.83 "HgN/A
5:00 AM79 °FPassing clouds.No wind84%29.83 "HgN/A
4:00 AM79 °FScattered showers. Passing clouds.No wind84%29.80 "HgN/A
3:00 AM77 °FPassing clouds.No wind89%29.80 "HgN/A
2:00 AM79 °FSmoke.No wind84%29.80 "HgN/A
1:00 AM79 °FSmoke.No wind84%29.80 "HgN/A
12:00 AM81 °FPassing clouds.No wind79%29.83 "HgN/A
11:00 PM
Fri, Oct 21
81 °FPassing clouds.No wind79%29.83 "HgN/A
10:00 PM81 °FPassing clouds.No wind79%29.83 "HgN/A
9:00 PM81 °FPassing clouds.No wind79%29.83 "HgN/A
8:00 PM82 °FSmoke.No wind74%29.80 "HgN/A
7:00 PM82 °FClear.8 mph79%29.77 "Hg10 mi
6:00 PM84 °FPassing clouds.14 mph74%29.77 "HgN/A
5:00 PM90 °FPassing clouds.14 mph55%29.77 "HgN/A
4:00 PM91 °FPassing clouds.14 mph52%29.74 "HgN/A
3:00 PM93 °FPassing clouds.16 mph49%29.77 "HgN/A
2:00 PM95 °FPassing clouds.13 mph44%29.77 "HgN/A
Weather by CustomWeather, © 2016

See weather overviewHow to use our weather pages